[[{"header":{"parameterUnit":"m.s-1","parameterCategory":1,"la1":30.2991,"la2":30.254,"lo1":-89.0895,"lo2":-89.0444,"dy":0.0017,"dx":0.0017,"nx":28,"ny":28,"refTime":"2025-03-11T09:00:00:Z","depth":0,"parameterNumber":2,"parameterNumberName":"U-component_of_WINDS"},"data":[0,0,0,0,0,0,0,0,0,0,0,0,0,0,0,0,0,0,0,0,0,0,0,0,0,0,0,0,0,0,0,0,0,0,0,0,0,0,0,0,0,0,0,0,0,0,0,0,0,0,0,0,0,0,0,0,0,0,0.479,0.4791,0,0.4908,0.491,0.4911,0.497,0.497,0.497,0.497,0.5095,0.5098,0.5101,0,0,0,0,0,0,0,0,0,0,0,0,0,0.4616,0.4619,0.4789,0.4791,0.4792,0.4908,0.491,0.4912,0.497,0.497,0.497,0.497,0.5093,0.5097,0.5101,0,0,0,0,0,0,0,0,0,0,0,0,0,0.4709,0.462,0.4789,0.4835,0.4841,0.4908,0.491,0.4912,0.497,0.497,0.497,0.497,0.5092,0.5097,0.5102,0.5133,0,0,0.5117,0.5119,0,0,0,0,0,0,0,0,0.4704,0.4715,0.4827,0.4832,0.4838,0.4924,0.4895,0.4986,0.497,0.4921,0.497,0.497,0.5038,0.5048,0.507,0.5139,0.5144,0.5118,0.5121,0.5123,0.5124,0,0,0,0,0,0,0,0.4697,0.471,0.4837,0.4829,0.4836,0.4851,0.4864,0.4912,0.4978,0.4925,0.493,0.4943,0.5041,0.5065,0.5073,0.5146,0.5118,0.5122,0.5125,0.5127,0.5249,0.5249,0,0,0,0,0,0,0.4683,0.4705,0.4833,0.484,0.4769,0.4854,0.4869,0.4897,0.4978,0.499,0.4943,0.4945,0.5056,0.5067,0.5078,0.5121,0.5123,0.5127,0.513,0.5248,0.5249,0.5249,0,0,0,0,0,0,0.4679,0.4694,0.4828,0.4774,0.4792,0.4857,0.4888,0.4899,0.4923,0.4991,0.5003,0.4955,0.5057,0.5071,0.5119,0.5126,0.513,0.5134,0.5248,0.5248,0.5249,0.5206,0,0,0,0,0,0,0.4674,0.4692,0.4703,0.4773,0.4795,0.4866,0.4888,0.4901,0.4931,0.4935,0.5006,0.5017,0.5058,0.5111,0.5124,0.5133,0.5138,0.5248,0.5248,0.5249,0.5207,0.5204,0.5202,0,0,0,0,0,0.4667,0.4687,0.4704,0.4719,0.481,0.4866,0.4878,0.4924,0.4931,0.4944,0.4988,0.5015,0.5123,0.5116,0.5131,0.5141,0.5248,0.5248,0.5249,0.5208,0.5205,0.5202,0,0,0,0,0,0,0.4616,0.4697,0.4716,0.4759,0.4805,0.4876,0.4893,0.4919,0.4965,0.4967,0.5023,0.5038,0.5082,0.5116,0.5107,0.5176,0.5188,0.5191,0.5152,0.515,0.5148,0.5138,0.5142,0,0,0,0,0,0.461,0.4647,0.4716,0.4747,0.477,0.4827,0.4853,0.4884,0.4935,0.4955,0.5003,0.5051,0.5097,0.5125,0.517,0.5212,0.5229,0.5227,0.5224,0.5222,0.5225,0.5251,0.5251,0.5251,0.5251,0.525,0,0,0.4597,0.4646,0.4666,0.4738,0.4778,0.4817,0.4843,0.4883,0.4913,0.4961,0.501,0.5046,0.5105,0.515,0.5172,0.518,0.5229,0.5223,0.5221,0.5225,0.5251,0.5251,0.5251,0.5251,0.5251,0.5251,0,0,0.4594,0.4634,0.4665,0.4704,0.4764,0.4802,0.4809,0.4876,0.4902,0.4952,0.4989,0.5026,0.5102,0.5143,0.5173,0.5187,0.5213,0.52,0.5189,0.5213,0.5213,0.5214,0.5219,0.522,0.5202,0.5202,0.5202,0,0.4571,0.463,0.4678,0.4716,0.4747,0.4792,0.4825,0.4861,0.4932,0.4953,0.496,0.5058,0.51,0.5156,0.5159,0.5182,0.5193,0.5192,0.5209,0.521,0.5211,0.5217,0.5219,0.52,0.52,0.52,0.5201,0,0.46,0.464,0.4658,0.4725,0.4758,0.4793,0.4847,0.4875,0.4904,0.4942,0.4992,0.5045,0.5102,0.5118,0.5146,0.5178,0.5181,0.5198,0.5211,0.5208,0.5215,0.5217,0.5197,0.5198,0.5198,0.5199,0,0,0.4567,0.466,0.4666,0.4698,0.4767,0.48,0.4837,0.4893,0.4916,0.4964,0.4998,0.5062,0.5078,0.5113,0.5146,0.5168,0.5176,0.5183,0.5185,0.518,0.5216,0.5202,0.5204,0.5194,0.5195,0.5196,0.5211,0,0.4574,0.4642,0.4687,0.4738,0.4776,0.4821,0.4854,0.4901,0.4938,0.4977,0.5018,0.5063,0.5081,0.5102,0.5125,0.517,0.5184,0.517,0.5227,0.5229,0.5211,0.5207,0.5194,0.5205,0.5214,0.5214,0.5215,0,0.459,0.4637,0.4691,0.4757,0.4775,0.4804,0.4859,0.4895,0.495,0.4976,0.5014,0.5049,0.5092,0.5101,0.5162,0.5151,0.5178,0.5203,0.5205,0.5212,0.5221,0.5215,0.521,0.5212,0.5219,0.5219,0.5218,0,0.4561,0.4637,0.468,0.4706,0.4784,0.4803,0.4837,0.4892,0.4922,0.4971,0.4991,0.5044,0.5073,0.5114,0.5163,0.5165,0.5219,0.5232,0.5242,0.5241,0.5251,0.525,0.5251,0.5268,0.5268,0.5268,0.5268,0,0.4564,0.4596,0.4669,0.4695,0.4732,0.4784,0.482,0.4858,0.4906,0.4942,0.4984,0.5016,0.5078,0.5119,0.5157,0.5202,0.5215,0.5238,0.5248,0.5234,0.5231,0.5252,0.5253,0.5268,0.5268,0.5268,0.5268,0,0.4538,0.4587,0.4637,0.4707,0.4726,0.475,0.4811,0.4839,0.4879,0.4923,0.4937,0.4999,0.5049,0.5101,0.517,0.5195,0.5239,0.5253,0.522,0.5226,0.5233,0.5232,0.5248,0.5253,0.5266,0.5265,0.5265,0,0.4536,0.4561,0.4634,0.4661,0.4693,0.4735,0.4767,0.482,0.4851,0.4916,0.4936,0.499,0.5035,0.5113,0.5165,0.5218,0.5233,0.5235,0.5242,0.5227,0.5234,0.5232,0.5235,0.5233,0.5233,0.5232,0.5232,0,0.4528,0.4552,0.4595,0.4647,0.4684,0.4728,0.4774,0.4793,0.4855,0.4889,0.494,0.4975,0.5045,0.5097,0.5156,0.5193,0.5223,0.523,0.5235,0.5221,0.5202,0.5213,0.5215,0.5229,0.5229,0.523,0.523,0.523,0.4514,0.4539,0.4595,0.4642,0.4682,0.4724,0.4754,0.4798,0.4841,0.4902,0.4931,0.4982,0.5038,0.5121,0.5156,0.5198,0.5207,0.5214,0.5216,0.5217,0.5214,0.5195,0.5209,0.5209,0.521,0.521,0.521,0,0.4509,0.4547,0.459,0.4652,0.469,0.4715,0.4767,0.4798,0.4842,0.4891,0.4935,0.4995,0.5047,0.5103,0.5158,0.5181,0.5197,0.5194,0.5193,0.5201,0.5203,0.5193,0.5181,0.5181,0.5181,0.5181,0.5181,0.5181,0.451,0.4554,0.4585,0.465,0.4688,0.4739,0.4767,0.4806,0.4846,0.491,0.4953,0.499,0.5042,0.5102,0.5151,0.5167,0.5185,0.5179,0.5198,0.5199,0.5201,0.5203,0.5194,0.5182,0.5182,0.5193,0.5193,0.5193]},{"header":{"parameterUnit":"m.s-1","parameterCategory":1,"la1":30.2991,"la2":30.254,"lo1":-89.0895,"lo2":-89.0444,"dy":0.0017,"dx":0.0017,"nx":28,"ny":28,"refTime":"2025-03-11T09:00:00:Z","depth":0,"parameterNumber":3,"parameterNumberName":"V-component_of_WINDS"},"data":[0,0,0,0,0,0,0,0,0,0,0,0,0,0,0,0,0,0,0,0,0,0,0,0,0,0,0,0,0,0,0,0,0,0,0,0,0,0,0,0,0,0,0,0,0,0,0,0,0,0,0,0,0,0,0,0,0,0,3.8662,3.8663,0,3.8788,3.8789,3.8791,3.8801,3.88,3.8799,3.8797,3.8917,3.8921,3.8926,0,0,0,0,0,0,0,0,0,0,0,0,0,3.8421,3.8426,3.8662,3.8663,3.8665,3.8788,3.8789,3.8791,3.8801,3.88,3.8798,3.8797,3.8916,3.8921,3.8926,0,0,0,0,0,0,0,0,0,0,0,0,0,3.8534,3.8427,3.8661,3.8685,3.8689,3.8787,3.8789,3.8792,3.8802,3.88,3.8798,3.8796,3.8914,3.892,3.8927,3.9008,0,0,3.8947,3.895,0,0,0,0,0,0,0,0,3.8528,3.8543,3.868,3.8684,3.8688,3.8777,3.8749,3.8864,3.8802,3.8758,3.8797,3.8795,3.8872,3.8882,3.8909,3.9014,3.9019,3.8948,3.8952,3.8955,3.8957,0,0,0,0,0,0,0,3.852,3.8538,3.8711,3.8682,3.8687,3.8687,3.87,3.877,3.8824,3.8762,3.8763,3.8779,3.8873,3.8903,3.8912,3.902,3.8948,3.8954,3.8958,3.896,3.9198,3.92,0,0,0,0,0,0,3.8509,3.8531,3.8707,3.8715,3.8602,3.8693,3.8708,3.875,3.8824,3.8833,3.878,3.8779,3.8892,3.8904,3.8916,3.9017,3.8955,3.8961,3.8965,3.9195,3.9198,3.9201,0,0,0,0,0,0,3.8504,3.8525,3.8702,3.8624,3.8646,3.8699,3.8746,3.8754,3.8784,3.8837,3.8846,3.8801,3.8891,3.8907,3.8986,3.9021,3.8964,3.897,3.9193,3.9196,3.92,3.9219,0,0,0,0,0,0,3.8497,3.8523,3.8556,3.8624,3.865,3.8773,3.8748,3.8758,3.8796,3.8795,3.886,3.8868,3.8891,3.8976,3.8993,3.903,3.8975,3.919,3.9194,3.9198,3.9215,3.9222,3.9229,0,0,0,0,0,3.8488,3.8554,3.8558,3.8579,3.8694,3.8775,3.8789,3.8817,3.8799,3.8832,3.8866,3.8866,3.9015,3.8984,3.9003,3.9042,3.9188,3.9193,3.9198,3.9212,3.9221,3.9228,0,0,0,0,0,0,3.8485,3.8564,3.8568,3.8659,3.8711,3.8776,3.8819,3.8825,3.888,3.8877,3.8906,3.892,3.8998,3.9027,3.8992,3.9125,3.9099,3.9108,3.9103,3.9112,3.9119,3.911,3.8981,0,0,0,0,0,3.8496,3.8558,3.8622,3.8695,3.8721,3.8766,3.8802,3.8819,3.8872,3.8893,3.8933,3.8982,3.904,3.9077,3.9133,3.9219,3.9233,3.9255,3.9262,3.9267,3.9275,3.9323,3.9334,3.9218,3.9218,3.9218,0,0,3.8517,3.8567,3.8604,3.8696,3.8738,3.8799,3.8784,3.8849,3.8894,3.8901,3.898,3.9011,3.9067,3.915,3.9189,3.9177,3.931,3.9274,3.9277,3.9283,3.9329,3.934,3.935,3.9221,3.9221,3.922,0,0,3.8588,3.8632,3.87,3.8743,3.8807,3.8837,3.8852,3.8918,3.894,3.9019,3.9027,3.9079,3.9178,3.9218,3.9251,3.9338,3.934,3.9355,3.939,3.9437,3.9446,3.9454,3.9486,3.9497,3.9362,3.9362,3.9362,0,3.8605,3.8701,3.8732,3.8799,3.8838,3.8851,3.8918,3.8957,3.9035,3.9061,3.9048,3.9173,3.9212,3.9305,3.9326,3.9352,3.937,3.9348,3.9443,3.9451,3.9459,3.949,3.9501,3.9364,3.9363,3.9363,3.9363,0,3.872,3.8786,3.8832,3.8912,3.8956,3.9022,3.9061,3.9101,3.9114,3.9144,3.9224,3.9271,3.9337,3.936,3.9372,3.9455,3.9446,3.9437,3.9412,3.9471,3.95,3.9512,3.9366,3.9365,3.9365,3.9364,0,0,3.8793,3.889,3.8907,3.8943,3.9016,3.9066,3.9131,3.92,3.9234,3.9287,3.9342,3.9426,3.9419,3.9456,3.9472,3.9513,3.9579,3.9499,3.9501,3.9513,3.9674,3.9682,3.9695,3.9581,3.9583,3.9585,3.967,0,3.8873,3.8995,3.9025,3.9127,3.9189,3.9201,3.9258,3.9307,3.9336,3.939,3.942,3.948,3.9466,3.9489,3.953,3.9563,3.9612,3.9557,3.9631,3.9633,3.9618,3.971,3.9718,3.9797,3.9682,3.9683,3.9685,0,3.8983,3.9043,3.9153,3.9219,3.9245,3.9297,3.9362,3.9414,3.9468,3.9487,3.953,3.9542,3.9608,3.9579,3.967,3.9632,3.9663,3.9684,3.9688,3.9697,3.9664,3.9723,3.9822,3.9835,3.9703,3.9701,3.97,0,3.9027,3.9134,3.9215,3.9245,3.9323,3.9359,3.9393,3.9446,3.9486,3.9541,3.9566,3.9627,3.9661,3.9706,3.9734,3.971,3.9823,3.9796,3.9839,3.9838,3.9863,3.9862,3.9971,3.9881,3.9881,3.9881,3.988,0,3.9114,3.9181,3.9236,3.9285,3.936,3.9392,3.9464,3.9497,3.9545,3.9599,3.9611,3.9661,3.9694,3.9748,3.9769,3.9841,3.9856,3.9871,3.9876,3.9871,3.9869,3.9893,3.9889,3.9884,3.9883,3.9883,3.9882,0,3.9177,3.9216,3.9305,3.9373,3.9391,3.9443,3.95,3.9547,3.9576,3.9644,3.9662,3.9707,3.9771,3.9803,3.9881,3.9895,3.9978,3.9978,3.9961,3.9963,4.0005,4.0001,4.0134,4.0154,4.005,4.0051,4.0051,0,3.9231,3.9284,3.9358,3.9397,3.9433,3.9494,3.9536,3.9568,3.9609,3.9677,3.9715,3.9781,3.9835,3.9936,3.9974,4.0033,4.0037,4.0079,4.0045,4.0039,4.0039,4.0036,4.0042,4.0085,4.0086,4.0087,4.0088,0,3.9323,3.934,3.9401,3.9469,3.9519,3.9573,3.9625,3.9655,3.9696,3.9741,3.9809,3.9851,3.9933,3.9997,4.006,4.0091,4.0096,4.0098,4.0112,4.0108,4.0096,4.0104,3.9979,4.0095,4.0094,4.0094,4.0093,4.0093,3.9384,3.9432,3.9493,3.956,3.9604,3.9653,3.9701,3.9738,3.9796,3.9868,3.9882,3.9953,4.0006,4.0091,4.0125,4.0179,4.0169,4.0188,4.0194,4.0198,4.0201,4.0086,4.019,4.019,4.019,4.019,4.0189,0,3.9478,3.9518,3.958,3.9656,3.9708,3.9711,3.9769,3.9812,3.9876,3.9926,3.9981,4.0058,4.012,4.0163,4.0226,4.0262,4.0265,4.0277,4.0275,4.0283,4.0205,4.0189,4.0273,4.0273,4.0273,4.0273,4.0273,4.0273,3.9534,3.9615,3.964,3.9742,3.9781,3.9854,3.9887,3.9932,3.9973,4.006,4.0114,4.0142,4.0189,4.0256,4.0313,4.0323,4.0346,4.0359,4.0369,4.0297,4.0288,4.028,4.0264,4.0363,4.0363,4.0442,4.0443,4.0443]}]]